Gadsden, AL

9:48 PM CDT on June 23, 2017 (GMT -0500)
Gadsden Municipal

Weather History for KGAD - January, 2015

Change the Weather History Date:

Monday, January 12, 2015

  Actual Average Record
Temperature  
Mean Temperature 44 °F -  
Max Temperature 46 °F 49 °F 80 °F (1949)
Min Temperature 41 °F 30 °F 19 °F (1997)
Degree Days  
Heating Degree Days 22    
Moisture  
Dew Point 40 °F    
Average Humidity 88    
Maximum Humidity 93    
Minimum Humidity 76    
Precipitation  
Precipitation 0.19 in - - ()
Sea Level Pressure  
Sea Level Pressure 30.23 in    
Wind  
Wind Speed 5 mph (NE)    
Max Wind Speed 8 mph    
Max Gust Speed -    
Visibility 2 miles    
Events      
Averages and records for this station are not official NWS values.
T = Trace of Precipitation, MM = Missing Value Source: NWS Daily Summary

Daily Weather History Graph

Daily Weather History Graph

Search for Another Location

Airport or City:

Trip Planner

Search our weather history database for the weather conditions in past years. The results will help you decide how hot, cold, wet, or windy it might be!

Date:

Astronomy

Jan. 12, 2015 Rise Set
Actual Time 6:50 AM CST 4:55 PM CST
Civil Twilight 6:22 AM CST 5:22 PM CST
Nautical Twilight 5:52 AM CST 5:53 PM CST
Astronomical Twilight 5:21 AM CST 6:23 PM CST
Moon 11:53 PM CST (1/12) 10:54 AM CST (1/12)
Length of Visible Light 10h 59m
Length of Day
10h 05m
Waning Gibbous, 56% of the Moon is Illuminated
Jan 12
Waning Gibbous
Jan 13
Last Quarter
Jan 20
New
Jan 26
First Quarter
Feb 3
Full

Hourly Weather History & Observations

Time (CST) Temp. Windchill Dew Point Humidity Pressure Visibility Wind Dir Wind Speed Gust Speed Precip Events Conditions
12:15 AM 42.8 °F 38.6 °F 35.6 °F 76% 30.30 in 10.0 mi ENE 6.9 mph - N/A   Overcast
12:35 AM 41.0 °F 35.8 °F 35.6 °F 81% 30.30 in 8.0 mi ENE 8.1 mph - N/A   Overcast
12:55 AM 41.0 °F 35.8 °F 35.6 °F 81% 30.30 in 7.0 mi ENE 8.1 mph - N/A   Overcast
1:15 AM 41.0 °F 35.8 °F 35.6 °F 81% 30.30 in 5.0 mi ENE 8.1 mph - N/A   Overcast
1:35 AM 41.0 °F 37.1 °F 37.4 °F 87% 30.30 in 5.0 mi East 5.8 mph - N/A   Overcast
1:55 AM 41.0 °F 36.4 °F 37.4 °F 87% 30.29 in 4.0 mi ENE 6.9 mph - N/A   Overcast
2:15 AM 41.0 °F 35.8 °F 37.4 °F 87% 30.28 in 3.0 mi East 8.1 mph - N/A   Overcast
2:35 AM 41.0 °F 35.8 °F 37.4 °F 87% 30.28 in 3.0 mi ENE 8.1 mph - N/A   Overcast
2:55 AM 41.0 °F 36.4 °F 37.4 °F 87% 30.27 in 2.5 mi NE 6.9 mph - N/A   Overcast
3:15 AM 41.0 °F 35.8 °F 37.4 °F 87% 30.26 in 2.0 mi NE 8.1 mph - N/A   Overcast
3:35 AM 41.0 °F 36.4 °F 37.4 °F 87% 30.26 in 2.0 mi ENE 6.9 mph - N/A   Overcast
3:55 AM 41.0 °F 36.4 °F 37.4 °F 87% 30.26 in 1.8 mi ENE 6.9 mph - N/A   Overcast
4:15 AM 41.0 °F 37.1 °F 37.4 °F 87% 30.25 in 1.5 mi ENE 5.8 mph - N/A   Overcast
4:35 AM 41.0 °F 38.0 °F 37.4 °F 87% 30.26 in 1.5 mi ENE 4.6 mph - N/A   Overcast
4:55 AM 41.0 °F 37.1 °F 37.4 °F 87% 30.26 in 1.5 mi ENE 5.8 mph - N/A   Overcast
5:15 AM 41.0 °F 36.4 °F 37.4 °F 87% 30.25 in 1.5 mi ENE 6.9 mph - N/A   Overcast
5:35 AM 41.0 °F 35.8 °F 37.4 °F 87% 30.25 in 1.5 mi ENE 8.1 mph - N/A   Overcast
5:55 AM 41.0 °F 37.1 °F 37.4 °F 87% 30.24 in 1.5 mi NE 5.8 mph - N/A   Overcast
6:15 AM 41.0 °F 38.0 °F 37.4 °F 87% 30.24 in 1.5 mi East 4.6 mph - N/A   Overcast
6:35 AM 41.0 °F 38.0 °F 37.4 °F 87% 30.24 in 1.8 mi NE 4.6 mph - N/A   Overcast
6:55 AM 41.0 °F 39.0 °F 37.4 °F 87% 30.24 in 1.2 mi ENE 3.5 mph - N/A   Overcast
7:15 AM 41.0 °F 39.0 °F 37.4 °F 87% 30.23 in 0.5 mi ENE 3.5 mph - N/A   Overcast
7:35 AM 41.0 °F - 37.4 °F 87% 30.23 in 0.5 mi Calm Calm - N/A   Overcast
7:55 AM 41.0 °F 39.0 °F 37.4 °F 87% 30.24 in 0.8 mi ENE 3.5 mph - N/A   Overcast
8:15 AM 41.0 °F 37.1 °F 37.4 °F 87% 30.24 in 1.2 mi East 5.8 mph - N/A   Overcast
8:35 AM 41.0 °F 36.4 °F 37.4 °F 87% 30.24 in 1.2 mi ENE 6.9 mph - N/A   Overcast
8:55 AM 42.8 °F 39.3 °F 39.2 °F 87% 30.25 in 1.2 mi ENE 5.8 mph - N/A   Overcast
9:15 AM 42.8 °F 38.6 °F 39.2 °F 87% 30.25 in 1.5 mi East 6.9 mph - N/A   Overcast
9:35 AM 42.8 °F 40.1 °F 39.2 °F 87% 30.25 in 1.8 mi NNE 4.6 mph - N/A   Overcast
9:55 AM 42.8 °F 41.1 °F 39.2 °F 87% 30.26 in 1.8 mi ENE 3.5 mph - N/A   Overcast
10:15 AM 42.8 °F 38.6 °F 39.2 °F 87% 30.25 in 1.5 mi East 6.9 mph - N/A   Overcast
10:35 AM 42.8 °F 39.3 °F 39.2 °F 87% 30.25 in 1.0 mi East 5.8 mph - N/A   Overcast
10:55 AM 44.6 °F 43.1 °F 39.2 °F 81% 30.24 in 0.8 mi ESE 3.5 mph - N/A   Overcast
11:15 AM 44.6 °F - 41.0 °F 87% 30.23 in 0.5 mi Calm Calm - 0.01 in   Overcast
11:35 AM 44.6 °F - 41.0 °F 87% 30.22 in 1.8 mi Calm Calm - 0.09 in   Overcast
11:55 AM 44.6 °F 42.2 °F 42.8 °F 93% 30.19 in 4.0 mi ESE 4.6 mph - 0.17 in   Overcast
12:15 PM 44.6 °F 40.7 °F 42.8 °F 93% 30.17 in 2.5 mi ENE 6.9 mph - N/A   Overcast
12:35 PM 44.6 °F - 41.0 °F 87% 30.19 in 2.0 mi Calm Calm - 0.01 in   Overcast
12:55 PM 44.6 °F - 42.8 °F 93% 30.18 in 5.0 mi Calm Calm - 0.01 in   Overcast
1:15 PM 44.6 °F 43.1 °F 42.8 °F 93% 30.16 in 3.0 mi North 3.5 mph - N/A   Overcast
1:35 PM 46.4 °F 45.2 °F 42.8 °F 87% 30.16 in 1.5 mi NE 3.5 mph - N/A   Overcast
1:55 PM 46.4 °F 45.2 °F 42.8 °F 87% 30.15 in 1.0 mi North 3.5 mph - N/A   Overcast
2:15 PM 46.4 °F - 42.8 °F 87% 30.15 in 1.0 mi Calm Calm - N/A   Overcast
2:35 PM 46.4 °F 45.2 °F 42.8 °F 87% 30.15 in 0.8 mi NNE 3.5 mph - N/A   Overcast
2:55 PM 46.4 °F 45.2 °F 44.6 °F 93% 30.16 in 1.0 mi ENE 3.5 mph - N/A   Overcast
3:15 PM 46.4 °F 45.2 °F 44.6 °F 93% 30.16 in 1.8 mi NE 3.5 mph - 0.01 in   Overcast
3:35 PM 46.4 °F - 44.6 °F 93% 30.17 in 2.0 mi Calm Calm - 0.01 in   Overcast
3:55 PM 46.4 °F 45.2 °F 44.6 °F 93% 30.17 in 2.0 mi NNE 3.5 mph - 0.01 in   Overcast
4:15 PM 46.4 °F 45.2 °F 44.6 °F 93% 30.17 in 1.5 mi NE 3.5 mph - N/A   Overcast
4:35 PM 46.4 °F 45.2 °F 44.6 °F 93% 30.17 in 1.8 mi ENE 3.5 mph - N/A   Overcast
4:55 PM 46.4 °F - 44.6 °F 93% 30.18 in 2.0 mi Calm Calm - N/A   Overcast
5:15 PM 46.4 °F - 44.6 °F 93% 30.18 in 5.0 mi Calm Calm - N/A   Overcast
5:35 PM 46.4 °F - 44.6 °F 93% 30.19 in 3.0 mi Calm Calm - N/A   Overcast
5:55 PM 46.4 °F - 44.6 °F 93% 30.20 in 1.8 mi Calm Calm - N/A   Overcast
6:15 PM - - - N/A% 30.19 in 0.8 mi Calm Calm - N/A   Overcast
6:35 PM - - - N/A% 30.19 in 0.8 mi Calm Calm - N/A   Overcast
6:55 PM - - - N/A% 30.20 in 0.5 mi Calm Calm - N/A   Overcast
7:15 PM - - - N/A% 30.20 in 0.5 mi Calm Calm - N/A   Overcast
7:35 PM - - - N/A% 30.21 in 0.5 mi Calm Calm - N/A   Overcast
7:55 PM - - - N/A% 30.21 in 0.5 mi Calm Calm - N/A   Overcast
8:15 PM - - - N/A% 30.21 in 0.5 mi Calm Calm - N/A   Overcast
8:35 PM - - - N/A% 30.21 in 0.8 mi Calm Calm - N/A   Overcast
8:55 PM - - - N/A% 30.22 in 0.8 mi Calm Calm - N/A   Overcast
9:15 PM - - - N/A% 30.23 in 1.2 mi Calm Calm - N/A   Overcast
9:35 PM 46.4 °F - 42.8 °F 87% 30.24 in 1.5 mi Calm Calm - N/A   Overcast
9:55 PM - - - N/A% 30.24 in 2.5 mi Calm Calm - N/A   Overcast
10:15 PM - - - N/A% 30.24 in 3.0 mi Calm Calm - N/A   Overcast
10:35 PM 46.4 °F - 44.6 °F 93% 30.24 in 4.0 mi Calm Calm - N/A   Overcast
10:55 PM 46.4 °F 43.5 °F 44.6 °F 93% 30.24 in 10.0 mi NW 5.8 mph - N/A   Overcast
11:15 PM 46.4 °F 42.4 °F 44.6 °F 93% 30.23 in 8.0 mi NNW 8.1 mph - N/A   Overcast
11:35 PM 46.4 °F 42.9 °F 44.6 °F 93% 30.24 in 9.0 mi NNW 6.9 mph - N/A   Overcast
11:55 PM 46.4 °F 42.4 °F 42.8 °F 87% 30.23 in 10.0 mi North 8.1 mph - N/A   Overcast